| time (UTC) | temp C | wind direction | speed KPH | gust KPH | rain 1hr cm | rain 24hr cm | rain mn cm | humidity % | barometer mb |
| 20260506004717 | 23 | 338 | 3.2 | 11.3 | 0.00 | 0.00 | 0.00 | 73 | 1005.7 |
| 20260506003757 | 23 | 338 | 4.8 | 9.7 | 0.00 | 0.00 | 0.00 | 70 | 1005.1 |
| 20260506002716 | 23 | 338 | 11.3 | 14.5 | 0.00 | 0.00 | 0.00 | 68 | 1005.0 |
| 20260506001717 | 24 | 338 | 4.8 | 11.3 | 0.00 | 0.00 | 0.00 | 69 | 1004.8 |
| 20260506000717 | 25 | 338 | 6.4 | 12.9 | 0.00 | 0.00 | 0.00 | 68 | 1004.9 |
| 20260505235758 | 26 | 338 | 11.3 | 14.5 | 0.00 | 0.00 | 0.00 | 67 | 1004.7 |
| 20260505234716 | 26 | 338 | 12.9 | 22.5 | 0.00 | 0.00 | 0.00 | 66 | 1004.5 |
| 20260505233716 | 27 | 338 | 12.9 | 20.9 | 0.00 | 0.00 | 0.00 | 65 | 1004.5 |
| 20260505232716 | 28 | 338 | 11.3 | 16.1 | 0.00 | 0.00 | 0.00 | 64 | 1004.5 |
| 20260505231737 | 28 | 315 | 4.8 | 9.7 | 0.00 | 0.00 | 0.00 | 63 | 1004.4 |
| 20260505230716 | 28 | 315 | 6.4 | 12.9 | 0.00 | 0.00 | 0.00 | 61 | 1004.1 |
| 20260505225717 | 29 | 338 | 11.3 | 22.5 | 0.00 | 0.00 | 0.00 | 60 | 1003.9 |
| 20260505224717 | 30 | 338 | 8.0 | 11.3 | 0.00 | 0.00 | 0.00 | 57 | 1003.7 |
| 20260505223717 | 30 | 338 | 4.8 | 11.3 | 0.00 | 0.00 | 0.00 | 55 | 1003.8 |
| 20260505222717 | 30 | 315 | 6.4 | 8.0 | 0.00 | 0.00 | 0.00 | 54 | 1003.6 |
| 20260505221717 | 31 | 315 | 9.7 | 12.9 | 0.00 | 0.00 | 0.00 | 52 | 1003.3 |
| 20260505220716 | 31 | 315 | 8.0 | 14.5 | 0.00 | 0.00 | 0.00 | 52 | 1003.2 |
| 20260505215716 | 32 | 0.0 | 1.6 | 0.00 | 0.00 | 0.00 | 52 | 1003.2 | |
| 20260505214716 | 33 | 315 | 3.2 | 8.0 | 0.00 | 0.00 | 0.00 | 52 | 1003.4 |
| 20260505213716 | 33 | 338 | 1.6 | 6.4 | 0.00 | 0.00 | 0.00 | 53 | 1003.4 |
| 20260505212736 | 33 | 135 | 3.2 | 8.0 | 0.00 | 0.00 | 0.00 | 53 | 1003.4 |
| 20260505211716 | 33 | 180 | 1.6 | 4.8 | 0.00 | 0.00 | 0.00 | 54 | 1003.6 |
| 20260505210737 | 33 | 180 | 1.6 | 4.8 | 0.00 | 0.00 | 0.00 | 55 | 1003.7 |
| 20260505205716 | 33 | 0.0 | 1.6 | 0.00 | 0.00 | 0.00 | 55 | 1003.8 | |
| 20260505204716 | 33 | 203 | 3.2 | 4.8 | 0.00 | 0.00 | 0.00 | 55 | 1003.8 |
| 20260505203716 | 33 | 158 | 1.6 | 3.2 | 0.00 | 0.00 | 0.00 | 56 | 1004.0 |
| 20260505202716 | 33 | 158 | 3.2 | 8.0 | 0.00 | 0.00 | 0.00 | 56 | 1004.3 |
| 20260505201716 | 33 | 180 | 6.4 | 9.7 | 0.00 | 0.00 | 0.00 | 57 | 1004.2 |
| 20260505200716 | 33 | 113 | 1.6 | 4.8 | 0.00 | 0.00 | 0.00 | 59 | 1004.3 |
| 20260505195716 | 32 | 203 | 4.8 | 16.1 | 0.00 | 0.00 | 0.00 | 59 | 1004.4 |
| 20260505194716 | 32 | 248 | 1.6 | 3.2 | 0.00 | 0.00 | 0.00 | 60 | 1004.5 |
| 20260505193717 | 32 | 158 | 4.8 | 8.0 | 0.00 | 0.00 | 0.00 | 61 | 1004.5 |
| 20260505192716 | 31 | 180 | 4.8 | 12.9 | 0.00 | 0.00 | 0.00 | 62 | 1004.5 |
| 20260505191756 | 31 | 248 | 6.4 | 17.7 | 0.00 | 0.00 | 0.00 | 63 | 1004.7 |
| 20260505190716 | 31 | 135 | 3.2 | 8.0 | 0.00 | 0.00 | 0.00 | 65 | 1004.4 |
| 20260505185716 | 30 | 180 | 4.8 | 6.4 | 0.00 | 0.00 | 0.00 | 64 | 1004.5 |
| 20260505184716 | 30 | 203 | 8.0 | 12.9 | 0.00 | 0.00 | 0.00 | 65 | 1004.5 |
| 20260505183716 | 30 | 248 | 3.2 | 8.0 | 0.00 | 0.00 | 0.00 | 67 | 1004.7 |
| 20260505182736 | 30 | 203 | 4.8 | 8.0 | 0.00 | 0.00 | 0.00 | 66 | 1004.8 |
| 20260505181757 | 30 | 180 | 6.4 | 12.9 | 0.00 | 0.00 | 0.00 | 67 | 1004.7 |
| 20260505180716 | 30 | 248 | 8.0 | 12.9 | 0.00 | 0.00 | 0.00 | 66 | 1004.9 |
| 20260505175716 | 30 | 180 | 6.4 | 11.3 | 0.00 | 0.00 | 0.00 | 66 | 1004.9 |
| 20260505174736 | 30 | 180 | 9.7 | 17.7 | 0.00 | 0.00 | 0.00 | 66 | 1004.8 |
| 20260505173716 | 29 | 225 | 4.8 | 9.7 | 0.00 | 0.00 | 0.00 | 69 | 1004.8 |
| 20260505172716 | 29 | 203 | 6.4 | 11.3 | 0.00 | 0.00 | 0.00 | 69 | 1004.9 |
| 20260505171716 | 28 | 158 | 6.4 | 12.9 | 0.00 | 0.00 | 0.00 | 69 | 1004.9 |
| 20260505170716 | 28 | 180 | 9.7 | 16.1 | 0.00 | 0.00 | 0.00 | 70 | 1005.0 |
| 20260505165716 | 28 | 180 | 6.4 | 12.9 | 0.00 | 0.00 | 0.00 | 72 | 1004.9 |
| 20260505164736 | 27 | 158 | 11.3 | 17.7 | 0.00 | 0.00 | 0.00 | 72 | 1004.9 |
| 20260505163716 | 27 | 225 | 11.3 | 17.7 | 0.00 | 0.00 | 0.00 | 73 | 1004.8 |
| 20260505162716 | 27 | 203 | 9.7 | 14.5 | 0.00 | 0.00 | 0.00 | 74 | 1004.8 |
| 20260505161736 | 27 | 225 | 12.9 | 24.1 | 0.00 | 0.00 | 0.00 | 74 | 1004.7 |
| 20260505160716 | 26 | 180 | 6.4 | 12.9 | 0.00 | 0.00 | 0.00 | 75 | 1004.7 |
| 20260505152716 | 25 | 203 | 12.9 | 22.5 | 0.00 | 0.00 | 0.00 | 79 | 1004.5 |
| 20260505151736 | 25 | 180 | 14.5 | 24.1 | 0.00 | 0.00 | 0.00 | 79 | 1004.6 |
| 20260505150716 | 25 | 180 | 6.4 | 16.1 | 0.00 | 0.00 | 0.00 | 80 | 1004.6 |
| 20260505124715 | 22 | 180 | 8.0 | 12.9 | 0.00 | 0.00 | 0.00 | 87 | 1003.9 |
| 20260505123715 | 22 | 180 | 9.7 | 14.5 | 0.00 | 0.00 | 0.00 | 87 | 1004.0 |
| 20260505122715 | 22 | 203 | 11.3 | 17.7 | 0.00 | 0.00 | 0.00 | 87 | 1003.9 |
| 20260505121735 | 22 | 203 | 8.0 | 12.9 | 0.00 | 0.00 | 0.00 | 87 | 1003.7 |
| 20260505120715 | 22 | 203 | 12.9 | 17.7 | 0.00 | 0.00 | 0.00 | 87 | 1003.6 |
| 20260505115716 | 22 | 203 | 11.3 | 20.9 | 0.00 | 0.00 | 0.00 | 87 | 1003.7 |
| 20260505114716 | 22 | 203 | 12.9 | 22.5 | 0.00 | 0.00 | 0.00 | 87 | 1003.6 |
| 20260505113735 | 22 | 158 | 11.3 | 16.1 | 0.00 | 0.00 | 0.00 | 87 | 1003.4 |
| 20260505112718 | 22 | 180 | 14.5 | 22.5 | 0.00 | 0.00 | 0.00 | 87 | 1003.4 |
| 20260505111717 | 22 | 180 | 9.7 | 14.5 | 0.00 | 0.00 | 0.00 | 86 | 1003.5 |
| 20260505110717 | 22 | 180 | 12.9 | 19.3 | 0.00 | 0.00 | 0.00 | 86 | 1003.5 |
| 20260505101717 | 22 | 225 | 6.4 | 11.3 | 0.00 | 0.00 | 0.00 | 86 | 1003.6 |
| 20260505100717 | 22 | 180 | 11.3 | 14.5 | 0.00 | 0.00 | 0.00 | 86 | 1003.8 |
| 20260505095737 | 22 | 158 | 3.2 | 8.0 | 0.00 | 0.00 | 0.00 | 86 | 1003.9 |
| 20260505094717 | 22 | 180 | 8.0 | 12.9 | 0.00 | 0.00 | 0.00 | 86 | 1003.8 |
| 20260505093717 | 22 | 180 | 11.3 | 19.3 | 0.00 | 0.00 | 0.00 | 86 | 1003.8 |
| 20260505092718 | 22 | 203 | 12.9 | 22.5 | 0.00 | 0.00 | 0.00 | 85 | 1003.9 |
| 20260505091737 | 22 | 203 | 11.3 | 20.9 | 0.00 | 0.00 | 0.00 | 85 | 1004.0 |
| 20260505090717 | 22 | 180 | 14.5 | 22.5 | 0.00 | 0.00 | 0.00 | 85 | 1004.1 |
| 20260505085717 | 22 | 180 | 11.3 | 19.3 | 0.00 | 0.00 | 0.00 | 85 | 1004.1 |
| 20260505084717 | 22 | 180 | 12.9 | 20.9 | 0.00 | 0.00 | 0.00 | 85 | 1004.1 |
| 20260505083717 | 22 | 180 | 9.7 | 19.3 | 0.00 | 0.00 | 0.00 | 85 | 1004.2 |
| 20260505082717 | 22 | 158 | 6.4 | 20.9 | 0.00 | 0.00 | 0.00 | 84 | 1004.2 |
| 20260505081717 | 22 | 180 | 8.0 | 14.5 | 0.00 | 0.00 | 0.00 | 84 | 1004.2 |
| 20260505080717 | 22 | 158 | 12.9 | 20.9 | 0.00 | 0.00 | 0.00 | 84 | 1004.1 |
| 20260505075717 | 22 | 203 | 11.3 | 19.3 | 0.00 | 0.00 | 0.00 | 83 | 1004.2 |
| 20260505074717 | 22 | 158 | 9.7 | 12.9 | 0.00 | 0.00 | 0.00 | 82 | 1004.4 |
| 20260505073717 | 23 | 180 | 6.4 | 12.9 | 0.00 | 0.00 | 0.00 | 82 | 1004.6 |
| 20260505072718 | 23 | 180 | 11.3 | 19.3 | 0.00 | 0.00 | 0.00 | 81 | 1004.8 |
| 20260505071737 | 23 | 203 | 8.0 | 17.7 | 0.00 | 0.00 | 0.00 | 81 | 1004.9 |
| 20260505070717 | 23 | 203 | 8.0 | 14.5 | 0.00 | 0.00 | 0.00 | 80 | 1005.2 |
| 20260505065718 | 23 | 180 | 12.9 | 17.7 | 0.00 | 0.00 | 0.00 | 79 | 1005.4 |
| 20260505064717 | 23 | 180 | 9.7 | 12.9 | 0.00 | 0.00 | 0.00 | 78 | 1005.4 |
| 20260505063717 | 23 | 203 | 6.4 | 9.7 | 0.00 | 0.00 | 0.00 | 78 | 1005.6 |
| 20260505062717 | 23 | 158 | 11.3 | 17.7 | 0.00 | 0.00 | 0.00 | 77 | 1005.5 |
| 20260505061717 | 23 | 180 | 11.3 | 19.3 | 0.00 | 0.00 | 0.00 | 76 | 1005.7 |
| 20260505060717 | 23 | 158 | 8.0 | 14.5 | 0.00 | 0.00 | 0.00 | 76 | 1005.7 |
| 20260505055716 | 24 | 180 | 12.9 | 17.7 | 0.00 | 0.00 | 0.00 | 75 | 1005.7 |
| 20260505054737 | 24 | 158 | 9.7 | 16.1 | 0.00 | 0.00 | 0.00 | 75 | 1005.6 |
| 20260505053716 | 24 | 158 | 9.7 | 20.9 | 0.00 | 0.00 | 0.00 | 74 | 1005.5 |
| 20260505052716 | 24 | 203 | 4.8 | 9.7 | 0.00 | 0.00 | 0.00 | 74 | 1005.5 |
| 20260505051717 | 24 | 180 | 9.7 | 16.1 | 0.00 | 0.00 | 0.00 | 74 | 1005.7 |
| 20260505050716 | 24 | 180 | 8.0 | 14.5 | 0.00 | 0.00 | 0.00 | 74 | 1005.7 |
| 20260505041717 | 24 | 180 | 9.7 | 17.7 | 0.00 | 0.00 | 0.00 | 74 | 1005.7 |
| 20260505040717 | 24 | 180 | 9.7 | 14.5 | 0.00 | 0.00 | 0.00 | 74 | 1005.9 |
| 20260505035717 | 24 | 180 | 8.0 | 12.9 | 0.00 | 0.00 | 0.00 | 74 | 1005.8 |
| 20260505034717 | 24 | 135 | 9.7 | 16.1 | 0.00 | 0.00 | 0.00 | 73 | 1005.7 |
| 20260505033716 | 24 | 203 | 12.9 | 19.3 | 0.00 | 0.00 | 0.00 | 73 | 1005.6 |
| 20260505032716 | 24 | 158 | 8.0 | 11.3 | 0.00 | 0.00 | 0.00 | 73 | 1005.6 |
| 20260505031717 | 24 | 180 | 12.9 | 17.7 | 0.00 | 0.00 | 0.00 | 73 | 1005.8 |
| 20260505030717 | 24 | 203 | 8.0 | 16.1 | 0.00 | 0.00 | 0.00 | 72 | 1005.7 |
| 20260505025716 | 25 | 203 | 11.3 | 16.1 | 0.00 | 0.00 | 0.00 | 72 | 1005.8 |
| 20260505024716 | 25 | 203 | 11.3 | 27.4 | 0.00 | 0.00 | 0.00 | 72 | 1005.8 |
| 20260505023716 | 25 | 180 | 12.9 | 19.3 | 0.00 | 0.00 | 0.00 | 72 | 1005.6 |
| 20260505022716 | 25 | 203 | 4.8 | 11.3 | 0.00 | 0.00 | 0.00 | 71 | 1005.9 |
| 20260505021737 | 25 | 158 | 6.4 | 9.7 | 0.00 | 0.00 | 0.00 | 71 | 1005.5 |
| 20260505020717 | 25 | 158 | 9.7 | 16.1 | 0.00 | 0.00 | 0.00 | 71 | 1005.5 |
| 20260505015716 | 25 | 180 | 9.7 | 20.9 | 0.00 | 0.00 | 0.00 | 71 | 1005.5 |
| 20260505014717 | 25 | 180 | 9.7 | 17.7 | 0.00 | 0.00 | 0.00 | 70 | 1005.6 |
| 20260505013717 | 25 | 180 | 9.7 | 14.5 | 0.00 | 0.00 | 0.00 | 70 | 1005.5 |
| 20260505012717 | 25 | 180 | 9.7 | 14.5 | 0.00 | 0.00 | 0.00 | 69 | 1005.5 |
| 20260505011838 | 25 | 180 | 9.7 | 17.7 | 0.00 | 0.00 | 0.00 | 69 | 1005.6 |
| 20260505010717 | 25 | 180 | 12.9 | 19.3 | 0.00 | 0.00 | 0.00 | 68 | 1005.6 |
| 20260505005737 | 26 | 158 | 11.3 | 16.1 | 0.00 | 0.00 | 0.00 | 68 | 1005.6 |